TimePDT,TemperatureF,Dew PointF,Humidity,Sea Level PressureIn,VisibilityMPH,Wind Direction,Wind SpeedMPH,Gust SpeedMPH,PrecipitationIn,Events,Conditions,WindDirDegrees,DateUTC
12:00 AM,48.2,44.6,87,30.16,0.2,Calm,Calm,-,N/A,Fog,Fog,0,2013-03-29 07:00:00
12:53 AM,48.0,46.0,93,30.17,0.2,Calm,Calm,-,N/A,Fog,Fog,0,2013-03-29 07:53:00
1:53 AM,48.0,45.0,89,30.17,0.2,Calm,Calm,-,N/A,Fog,Fog,0,2013-03-29 08:53:00
2:53 AM,48.0,45.0,89,30.19,0.2,Calm,Calm,-,N/A,Fog,Fog,0,2013-03-29 09:53:00
3:27 AM,48.2,46.4,93,30.19,0.5,Calm,Calm,-,N/A,Fog,Fog,0,2013-03-29 10:27:00
3:37 AM,48.2,46.4,93,30.19,0.2,Calm,Calm,-,N/A,Fog,Fog,0,2013-03-29 10:37:00
3:53 AM,48.0,45.0,89,30.19,0.2,Calm,Calm,-,N/A,Fog,Fog,0,2013-03-29 10:53:00
4:31 AM,48.2,44.6,87,30.20,0.5,Calm,Calm,-,N/A,Fog,Fog,0,2013-03-29 11:31:00
4:39 AM,48.2,44.6,87,30.20,0.2,Calm,Calm,-,N/A,Fog,Fog,0,2013-03-29 11:39:00
4:53 AM,48.0,45.0,89,30.21,0.5,WSW,3.5,-,N/A,Fog,Fog,240,2013-03-29 11:53:00
5:08 AM,48.2,44.6,87,30.21,0.2,West,4.6,-,N/A,Fog,Fog,260,2013-03-29 12:08:00
5:15 AM,48.2,44.6,87,30.21,0.5,WSW,3.5,-,N/A,Fog,Fog,250,2013-03-29 12:15:00
5:53 AM,48.0,45.0,89,30.22,1.0,Calm,Calm,-,N/A,,Overcast,0,2013-03-29 12:53:00
6:11 AM,48.2,44.6,87,30.22,0.8,Calm,Calm,-,N/A,,Mist,0,2013-03-29 13:11:00
6:53 AM,46.9,44.1,90,30.23,0.5,Calm,Calm,-,N/A,Fog,Fog,0,2013-03-29 13:53:00
7:19 AM,46.4,44.6,93,30.23,0.2,Calm,Calm,-,N/A,Fog,Fog,0,2013-03-29 14:19:00
7:53 AM,46.9,44.1,90,30.24,0.2,Calm,Calm,-,N/A,Fog,Fog,0,2013-03-29 14:53:00
8:53 AM,48.0,45.0,89,30.24,0.5,Calm,Calm,-,N/A,Fog,Fog,0,2013-03-29 15:53:00
9:10 AM,48.2,44.6,87,30.24,1.2,Calm,Calm,-,N/A,,Overcast,0,2013-03-29 16:10:00
9:17 AM,48.2,44.6,87,30.24,1.8,Calm,Calm,-,N/A,,Overcast,0,2013-03-29 16:17:00
9:38 AM,48.2,44.6,87,30.25,2.0,Calm,Calm,-,N/A,,Overcast,0,2013-03-29 16:38:00
9:53 AM,48.0,45.0,89,30.26,2.0,Calm,Calm,-,N/A,,Overcast,0,2013-03-29 16:53:00
10:02 AM,48.2,44.6,87,30.25,1.8,WNW,3.5,-,N/A,,Overcast,290,2013-03-29 17:02:00
10:13 AM,48.2,44.6,87,30.26,2.0,Calm,Calm,-,N/A,,Overcast,0,2013-03-29 17:13:00
10:31 AM,48.2,44.6,87,30.26,5.0,Calm,Calm,-,N/A,,Overcast,0,2013-03-29 17:31:00
10:53 AM,50.0,45.0,83,30.26,7.0,Calm,Calm,-,N/A,,Overcast,0,2013-03-29 17:53:00
11:24 AM,51.8,44.6,76,30.26,8.0,Calm,Calm,-,N/A,,Overcast,0,2013-03-29 18:24:00
11:53 AM,52.0,46.0,80,30.27,9.0,Variable,4.6,-,N/A,,Overcast,0,2013-03-29 18:53:00
12:22 PM,53.6,46.4,77,30.26,9.0,West,5.8,-,N/A,,Overcast,270,2013-03-29 19:22:00
12:51 PM,57.2,46.4,67,30.25,9.0,Variable,3.5,-,N/A,,Scattered Clouds,0,2013-03-29 19:51:00
12:53 PM,57.9,46.9,67,30.26,9.0,Calm,Calm,-,N/A,,Partly Cloudy,0,2013-03-29 19:53:00
1:53 PM,61.0,46.9,60,30.25,9.0,Variable,5.8,-,N/A,,Clear,0,2013-03-29 20:53:00
2:53 PM,61.0,46.0,58,30.24,9.0,North,5.8,-,N/A,,Clear,350,2013-03-29 21:53:00
3:53 PM,61.0,46.0,58,30.23,9.0,Variable,6.9,-,N/A,,Clear,0,2013-03-29 22:53:00
4:53 PM,57.9,45.0,62,30.24,8.0,NW,8.1,-,N/A,,Clear,320,2013-03-29 23:53:00
5:53 PM,54.0,43.0,66,30.24,8.0,NNW,9.2,18.4,N/A,,Clear,330,2013-03-30 00:53:00
6:53 PM,52.0,43.0,71,30.23,7.0,WNW,3.5,-,N/A,,Clear,300,2013-03-30 01:53:00
7:53 PM,48.0,42.1,80,30.23,6.0,NNW,3.5,-,N/A,,Haze,330,2013-03-30 02:53:00
8:53 PM,46.0,41.0,83,30.25,7.0,Variable,3.5,-,N/A,,Clear,0,2013-03-30 03:53:00
9:53 PM,45.0,41.0,86,30.25,6.0,North,3.5,-,N/A,,Clear,10,2013-03-30 04:53:00
10:53 PM,44.1,39.9,85,30.26,6.0,Calm,Calm,-,N/A,,Clear,0,2013-03-30 05:53:00
11:53 PM,42.1,39.0,89,30.26,5.0,NE,3.5,-,N/A,,Clear,50,2013-03-30 06:53:00